Location: Newark
(49.1000°N, 0.4667°W)
Time: 10:31:02
(UTC+00:00)

BEESAT 3 - Pass Details

Date: 07 July 2020
Orbit: 482 x 522 km, 64.9° (Epoch: 10 August)

Event Time Altitude Azimuth Distance (km) Brightness Sun altitude
Rises 23:09:21 0° 274° (W) 2,650 ? -17.3°
Reaches altitude 10° 23:12:23 10° 300° (WNW) 1,766 ? -17.4°
Maximum altitude 23:14:38 15° 334° (NNW) 1,503 ? -17.5°
Drops below altitude 10° 23:16:52 10° 9° (N) 1,769 ? -17.6°
Sets 23:19:56 0° 34° (NE) 2,657 ? -17.7°
